EA7RX-13 Weather Reports


Display with metric or nautical units.
time (UTC)temp
F
wind
direction
speed
MPH
gust
MPH
rain 1hr
in
rain 24hr
in
rain mn
in
humidity
%
barometer
mb
20260901033630 74 0.0 0.0 0.00 0.00 0.00 58 1015.9
20260901032630 74 0.0 0.0 0.00 0.00 0.00 59 1016.2
20260901031630 74 0.0 0.0 0.00 0.00 0.00 58 1015.9
20260901030630 74 0.0 0.0 0.00 0.00 0.00 59 1016.1
20260901025630 74 0.0 0.0 0.00 0.00 0.00 58 1016.0
20260901024630 74 0.0 0.0 0.00 0.00 0.00 55 1016.0
20260901023630 74 0.0 0.0 0.00 0.00 0.00 57 1016.0
20260901022630 74 0.0 0.0 0.00 0.00 0.00 56 1016.0
20260901021630 74 0.0 0.0 0.00 0.00 0.00 55 1015.9
20260901020630 74 0.0 0.0 0.00 0.00 0.00 55 1015.9
20260901015630 75 0.0 0.0 0.00 0.00 0.00 53 1015.9
20260901014630 75 0.0 0.0 0.00 0.00 0.00 54 1016.0
20260901013630 75 0.0 0.0 0.00 0.00 0.00 51 1015.9
20260901012630 75 0.0 0.0 0.00 0.00 0.00 51 1015.9
20260901011630 75 0.0 0.0 0.00 0.00 0.00 51 1015.8
20260901010630 76 0.0 0.0 0.00 0.00 0.00 51 1015.7
20260901005630 76 0.0 0.0 0.00 0.00 0.00 49 1015.8
20260901004630 76 0.0 0.0 0.00 0.00 0.00 49 1015.7
20260901003630 76 0.0 0.0 0.00 0.00 0.00 50 1015.8
20260901002630 76 0.0 0.0 0.00 0.00 0.00 49 1015.9
20260901001630 77 0.0 0.0 0.00 0.00 0.00 46 1016.1
20260901000630 77 0.0 0.0 0.00 0.00 0.00 47 1016.2
20260831235630 76 0.0 0.0 0.00 0.00 0.00 48 1016.3
20260831234630 76 0.0 0.0 0.00 0.00 0.00 47 1016.0
20260831233630 76 0.0 0.0 0.00 0.00 0.00 48 1016.1
20260831232630 77 0.0 0.0 0.00 0.00 0.00 49 1016.0
20260831231630 77 0.0 0.0 0.00 0.00 0.00 46 1016.0
20260831230630 78 0.0 0.0 0.00 0.00 0.00 44 1015.8
20260831225630 77 0.0 0.0 0.00 0.00 0.00 45 1015.9
20260831224630 78 0.0 0.0 0.00 0.00 0.00 43 1015.7
20260831223630 78 0.0 0.0 0.00 0.00 0.00 44 1015.7
20260831222631 77 0.0 0.0 0.00 0.00 0.00 46 1015.6
20260831221636 78 0.0 0.0 0.00 0.00 0.00 44 1015.5
20260831220630 78 0.0 0.0 0.00 0.00 0.00 45 1015.4
20260831215630 78 0.0 0.0 0.00 0.00 0.00 45 1015.5
20260831214630 78 0.0 0.0 0.00 0.00 0.00 44 1015.4
20260831213633 78 0.0 0.0 0.00 0.00 0.00 44 1015.4
20260831212630 79 0.0 0.0 0.00 0.00 0.00 43 1015.3
20260831211630 79 0.0 0.0 0.00 0.00 0.00 44 1015.3
20260831210630 79 0.0 0.0 0.00 0.00 0.00 44 1015.3
20260831205630 80 0.0 0.0 0.00 0.00 0.00 42 1015.1
20260831204630 79 0.0 0.0 0.00 0.00 0.00 44 1015.0
20260831203630 79 0.0 0.0 0.00 0.00 0.00 45 1014.9
20260831202630 80 0.0 0.0 0.00 0.00 0.00 45 1014.6
20260831201630 81 0.0 0.0 0.00 0.00 0.00 42 1014.6
20260831200630 81 0.0 0.0 0.00 0.00 0.00 41 1014.3
20260831195630 82 0.0 0.0 0.00 0.00 0.00 41 1014.1
20260831194630 82 0.0 0.0 0.00 0.00 0.00 40 1013.9
20260831193630 82 0.0 0.0 0.00 0.00 0.00 42 1013.7
20260831192630 84 0.0 0.0 0.00 0.00 0.00 38 1013.3
20260831191630 85 0.0 0.0 0.00 0.00 0.00 37 1013.1
20260831190630 86 0.0 0.0 0.00 0.00 0.00 36 1012.8
20260831185630 87 0.0 0.0 0.00 0.00 0.00 36 1012.7
20260831184630 88 0.0 0.0 0.00 0.00 0.00 33 1012.5
20260831183630 89 0.0 0.0 0.00 0.00 0.00 32 1012.3
20260831182630 91 0.0 0.0 0.00 0.00 0.00 32 1012.1
20260831181630 91 0.0 0.0 0.00 0.00 0.00 31 1012.1
20260831180630 93 0.0 0.0 0.00 0.00 0.00 29 1012.0
20260831175630 94 0.0 0.0 0.00 0.00 0.00 30 1011.8
20260831174630 96 0.0 0.0 0.00 0.00 0.00 27 1011.7
20260831173630 99 0.0 0.0 0.00 0.00 0.00 26 1011.4
20260831172630 98 0.0 0.0 0.00 0.00 0.00 27 1011.4
20260831171630 99 0.0 0.0 0.00 0.00 0.00 25 1011.3
20260831170630 99 0.0 0.0 0.00 0.00 0.00 25 1011.3
20260831165630 99 0.0 0.0 0.00 0.00 0.00 24 1011.3
20260831164630 99 0.0 0.0 0.00 0.00 0.00 24 1011.3
20260831163630 99 0.0 0.0 0.00 0.00 0.00 23 1011.3
20260831162630 99 0.0 0.0 0.00 0.00 0.00 24 1011.4
20260831161630 100 0.0 0.0 0.00 0.00 0.00 25 1011.4
20260831160630 100 0.0 0.0 0.00 0.00 0.00 23 1011.5
20260831155630 101 0.0 0.0 0.00 0.00 0.00 27 1011.4
20260831154630 101 0.0 0.0 0.00 0.00 0.00 24 1011.5
20260831153630 100 0.0 0.0 0.00 0.00 0.00 24 1011.6
20260831152630 100 0.0 0.0 0.00 0.00 0.00 24 1011.7
20260831151630 100 0.0 0.0 0.00 0.00 0.00 25 1011.8
20260831150630 102 0.0 0.0 0.00 0.00 0.00 24 1011.6
20260831145630 102 0.0 0.0 0.00 0.00 0.00 24 1011.8
20260831144630 101 0.0 0.0 0.00 0.00 0.00 25 1011.8
20260831143630 103 0.0 0.0 0.00 0.00 0.00 25 1011.8
20260831142630 100 0.0 0.0 0.00 0.00 0.00 25 1012.2
20260831141630 101 0.0 0.0 0.00 0.00 0.00 24 1012.1
20260831140630 101 0.0 0.0 0.00 0.00 0.00 25 1012.4
20260831135630 102 0.0 0.0 0.00 0.00 0.00 24 1012.5
20260831134630 103 0.0 0.0 0.00 0.00 0.00 24 1012.4
20260831133630 102 0.0 0.0 0.00 0.00 0.00 24 1012.6
20260831132630 101 0.0 0.0 0.00 0.00 0.00 25 1012.7
20260831131630 100 0.0 0.0 0.00 0.00 0.00 25 1012.9
20260831130630 101 0.0 0.0 0.00 0.00 0.00 25 1012.9
20260831125630 101 0.0 0.0 0.00 0.00 0.00 24 1013.0
20260831124630 101 0.0 0.0 0.00 0.00 0.00 25 1013.1
20260831123630 100 0.0 0.0 0.00 0.00 0.00 25 1013.4
20260831122630 100 0.0 0.0 0.00 0.00 0.00 25 1013.4
20260831121630 97 0.0 0.0 0.00 0.00 0.00 27 1013.8
20260831120630 98 0.0 0.0 0.00 0.00 0.00 27 1013.8
20260831115631 97 0.0 0.0 0.00 0.00 0.00 28 1013.9
20260831114629 98 0.0 0.0 0.00 0.00 0.00 29 1014.0
20260831113630 97 0.0 0.0 0.00 0.00 0.00 29 1014.3
20260831112629 96 0.0 0.0 0.00 0.00 0.00 30 1014.4
20260831111629 96 0.0 0.0 0.00 0.00 0.00 30 1014.5
20260831110629 94 0.0 0.0 0.00 0.00 0.00 31 1014.7
20260831105629 94 0.0 0.0 0.00 0.00 0.00 32 1014.7
20260831104629 91 0.0 0.0 0.00 0.00 0.00 34 1015.1
20260831103630 91 0.0 0.0 0.00 0.00 0.00 35 1015.3
20260831102629 89 0.0 0.0 0.00 0.00 0.00 36 1015.4
20260831101629 89 0.0 0.0 0.00 0.00 0.00 37 1015.5
20260831100629 88 0.0 0.0 0.00 0.00 0.00 37 1015.6
20260831095629 87 0.0 0.0 0.00 0.00 0.00 37 1015.7
20260831094629 87 0.0 0.0 0.00 0.00 0.00 39 1015.8
20260831093629 85 0.0 0.0 0.00 0.00 0.00 39 1015.9
20260831092629 84 0.0 0.0 0.00 0.00 0.00 39 1016.1
20260831091629 84 0.0 0.0 0.00 0.00 0.00 39 1016.1
20260831090629 84 0.0 0.0 0.00 0.00 0.00 41 1016.2
20260831085629 83 0.0 0.0 0.00 0.00 0.00 40 1016.2
20260831084629 82 0.0 0.0 0.00 0.00 0.00 42 1016.2
20260831083629 81 0.0 0.0 0.00 0.00 0.00 41 1016.3
20260831082629 80 0.0 0.0 0.00 0.00 0.00 49 1016.4
20260831081629 79 0.0 0.0 0.00 0.00 0.00 48 1016.6
20260831080629 78 0.0 0.0 0.00 0.00 0.00 50 1016.6
20260831075629 77 0.0 0.0 0.00 0.00 0.00 53 1016.5
20260831074629 76 0.0 0.0 0.00 0.00 0.00 51 1016.6
20260831073629 74 0.0 0.0 0.00 0.00 0.00 53 1016.7
20260831072629 72 0.0 0.0 0.00 0.00 0.00 58 1016.9
20260831071629 70 0.0 0.0 0.00 0.00 0.00 63 1017.0
20260831070629 69 0.0 0.0 0.00 0.00 0.00 59 1017.1
20260831065629 68 0.0 0.0 0.00 0.00 0.00 60 1017.1
20260831064629 68 0.0 0.0 0.00 0.00 0.00 62 1017.2
20260831063629 67 0.0 0.0 0.00 0.00 0.00 60 1017.1
20260831062629 67 0.0 0.0 0.00 0.00 0.00 59 1017.1
20260831061629 67 0.0 0.0 0.00 0.00 0.00 59 1016.9
20260831060629 66 0.0 0.0 0.00 0.00 0.00 60 1016.9
20260831055629 67 0.0 0.0 0.00 0.00 0.00 59 1016.7
20260831054629 67 0.0 0.0 0.00 0.00 0.00 58 1016.7
20260831053629 67 0.0 0.0 0.00 0.00 0.00 59 1016.6
20260831052629 66 0.0 0.0 0.00 0.00 0.00 59 1016.5
20260831051629 67 0.0 0.0 0.00 0.00 0.00 59 1016.6
20260831050629 67 0.0 0.0 0.00 0.00 0.00 57 1016.6
20260831045629 67 0.0 0.0 0.00 0.00 0.00 57 1016.6
20260831044629 67 0.0 0.0 0.00 0.00 0.00 58 1016.6
20260831043629 67 0.0 0.0 0.00 0.00 0.00 59 1016.6
20260831042629 68 0.0 0.0 0.00 0.00 0.00 61 1016.6
20260831041629 68 0.0 0.0 0.00 0.00 0.00 59 1016.7
20260831040629 68 0.0 0.0 0.00 0.00 0.00 57 1016.6
20260831035629 69 0.0 0.0 0.00 0.00 0.00 55 1016.5
20260831034629 69 0.0 0.0 0.00 0.00 0.00 54 1016.5